Airfield :
LOGIN :

Register | Disclaimer

   EN    FR    IT 

 










Legend :    VFR   Marginal VFR   IFR   Intensive IFR   Very Intensive IFR
Visi :
Ceiling :
>= 8 km
>= 3000ft
5 to 8 km
1000 to 3000 ft
1500m to 5 km
500 to 1000 ft
800 to 1500m
200 to 500 ft
< 800m
< 200 ft
Symbols :   Thunderstorms  Fog  Heavy snow  Heavy precipitations  Wind > 20 kt
SIGMETs :     Misc.  Thunderstorms  Icing  Turbulence  Mountain Waves  Volcanic Ashes







- Airport Elevation : 117 ft
- IATA code : NWI
- Download approach charts


EGSH - Norwich

CURRENT METAR :
  • 181150Z 27014KT CAVOK 09/05 Q1019 NOSIG

EXPIRED METARs :
  • 181120Z 27013KT CAVOK 09/05 Q1019 NOSIG
  • 181050Z 27010KT 240V310 CAVOK 08/05 Q1019 NOSIG
  • 181020Z 26010KT 230V300 CAVOK 07/04 Q1020 NOSIG
  • 180950Z 27012KT CAVOK 06/04 Q1020 NOSIG
  • 180920Z 26013KT CAVOK 05/03 Q1020 NOSIG

TAF TAF EGSH
Valid from the 18 at 12:00 until the 18 at 21:00 UTC


181058Z 1812/1821 25012KT 9999 FEW045
ATIS : +44 1603 420 640
No reported NOTAMs for that airfield.



MET'MAP, your aeronautical weather chart ! - Copyright ORBIFLY December 2007 - Disclaimer

ORBIFLY MET'MAP TEAM :

Programming & Development : Alexandra Zaïnal
Concept & Development : Baudouin d'Aumeries
Co-Development & Prog : Marc-Olivier Méhu
Technical & hardware support : Manuel Goepfert

Contact : metmap@orbifly.com




SOURCES & CREDITS :

   NOAA